This is the latest recevied weather packets stored in our database for station/object KD0SBN. If no packets are shown the sender has not sent any weather packets the latest 10 day(s).
| Time | Temp. | Humidity | Pressure | Rain* | Wind** | Luminosity | Snow |
|---|---|---|---|---|---|---|---|
| 1777915846 | 24.44° C | 26% | 1007.8 hPa | 0 mm | - | - | - |
| 1777915541 | 25° C | 26% | 1007.9 hPa | 0 mm | - | - | - |
| 1777915238 | 24.44° C | 26% | 1008 hPa | 0 mm | - | - | - |
| 1777914935 | 23.89° C | 27% | 1008.3 hPa | 0 mm | - | - | - |
| 1777914632 | 24.44° C | 26% | 1008.3 hPa | 0 mm | - | - | - |
| 1777914328 | 23.89° C | 26% | 1008.6 hPa | 0 mm | - | - | - |
| 1777914026 | 23.89° C | 26% | 1008.6 hPa | 0 mm | - | - | - |
| 1777913721 | 23.89° C | 26% | 1008.6 hPa | 0 mm | - | - | - |
| 1777913419 | 23.89° C | 27% | 1008.7 hPa | 0 mm | - | - | - |
| 1777913115 | 23.33° C | 26% | 1008.7 hPa | 0 mm | - | - | - |
| 1777912812 | 22.22° C | 27% | 1009 hPa | 0 mm | - | - | - |
| 1777912507 | 23.33° C | 27% | 1008.8 hPa | 0 mm | - | - | - |
| 1777912204 | 22.78° C | 27% | 1009 hPa | 0 mm | - | - | - |
| 1777911900 | 23.89° C | 27% | 1009.1 hPa | 0 mm | - | - | - |
| 1777911597 | 23.89° C | 27% | 1009.1 hPa | 0 mm | - | - | - |
| 1777911293 | 23.33° C | 27% | 1009.1 hPa | 0 mm | - | - | - |
| 1777910990 | 22.78° C | 28% | 1009 hPa | 0 mm | - | - | - |
| 1777910688 | 22.22° C | 29% | 1009.2 hPa | 0 mm | - | - | - |
| 1777910384 | 22.22° C | 28% | 1009.4 hPa | 0 mm | - | - | - |
| 1777910081 | 22.78° C | 28% | 1009.3 hPa | 0 mm | - | - | - |
| 1777909779 | 22.22° C | 28% | 1009.4 hPa | 0 mm | - | - | - |
| 1777909475 | 21.67° C | 29% | 1009.4 hPa | 0 mm | - | - | - |
| 1777909173 | 22.22° C | 28% | 1009.2 hPa | 0 mm | - | - | - |
| 1777908871 | 21.67° C | 29% | 1009.2 hPa | 0 mm | - | - | - |
| 1777908568 | 22.22° C | 29% | 1009.4 hPa | 0 mm | - | - | - |
* Rain latest hour (hover to see other rain measurements)
** Current wind speed in m/s (hover to see current wind gust speed)